Regional Weather Roundup
Issued by NWS

Home | Current Version | Previous Version | Text Only | Print | Product List | Glossary Off
Versions: 1 2 3 4 5 6 7 8 9 10 11 12 13 14 15 16 17 18 19 20 21 22 23 24 25 26 27 28 29 30 31 32 33 34 35 36 37 38 39 40 41 42 43 44 45 46 47 48 49 50

874
ASUS43 KMKX 280921
RWRWI

WISCONSIN REGIONAL WEATHER ROUNDUP
NATIONAL WEATHER SERVICE MILWAUKEE/SULLIVAN WI
400 AM CDT FRI APR 28 2017

NOTE: "FAIR" INDICATES FEW OR NO CLOUDS BELOW 12,000 FEET WITH NO
SIGNIFICANT WEATHER AND/OR OBSTRUCTIONS TO VISIBILITY.

WIZ001-002-006>008-014>016-023>028-281000-
NORTHWEST WISCONSIN

CITY           SKY/WX    TMP DP  RH WIND       PRES   REMARKS
SUPERIOR ARPT  CLOUDY    31  24  75 W8        29.75R WCI  23
ASHLAND        CLOUDY    29  25  85 SW10      29.73R WCI  20
HAYWARD        MIX PCPN  30  25  81 VRB5      29.74R WCI  25
SIREN          CLOUDY    31  25  77 W6        29.78R WCI  26
CUMBERLAND     CLOUDY    32  25  74 W10       29.78R WCI  24
RICE LAKE      CLOUDY    32  26  77 W10       29.79R WCI  24
CHETEK         CLOUDY    32  26  76 W3        29.79R
LADYSMITH      CLOUDY    32  25  74 SW13      29.77R WCI  22
EAU CLAIRE     CLOUDY    34  25  69 SW10      29.81R WCI  26
MENOMONIE      CLOUDY    34  27  75 SW9       29.82R WCI  26
NEW RICHMOND   CLOUDY    33  26  73 W9        29.82R WCI  26
OSCEOLA        CLOUDY    34  27  74 W9        29.84R WCI  27
$$

WIZ003>005-009-010-017-018-281000-
NORTH CENTRAL WISCONSIN

CITY           SKY/WX    TMP DP  RH WIND       PRES   REMARKS
MANITOWISH WTR CLOUDY    27  26  94 W7        29.69R WCI  20
ARBOR VITAE    CLOUDY    32  29  89 W7        29.69R WCI  25
WOODRUFF       CLOUDY    32  29  89 W7        29.69R WCI  25
RHINELANDER    CLOUDY    30  25  81 W12       29.72R WCI  20
EAGLE RIVER    CLOUDY    28  23  82 W14       29.69R WCI  17
LAND O LAKES   CLOUDY    28  24  86 W8G18     29.70R WCI  20
PHILLIPS       CLOUDY    28  26  94 W7        29.72R WCI  21
TOMAHAWK       CLOUDY    28  24  85 SW5       29.74R WCI  23
MEDFORD        CLOUDY    29  24  82 W9G20     29.76R WCI  21
MERRILL        CLOUDY    30  24  78 W12       29.76R WCI  21
$$

WIZ029-030-035-036-043>047-281000-
CENTRAL WISCONSIN

CITY           SKY/WX    TMP DP  RH WIND       PRES   REMARKS
WAUSAU         CLOUDY    30  25  81 W13G21    29.77R WCI  20
MOSINEE        CLOUDY    32  28  86 W17G24    29.79R WCI  21
MARSHFIELD     CLOUDY    32  25  75 W12       29.78R WCI  23
STEVENS POINT  CLOUDY    31  27  86 W8        29.81R WCI  23
WAUPACA        CLOUDY    36  32  85 W8        29.83R WCI  29
WAUTOMA        CLOUDY    35  28  75 W15G21    29.84R WCI  25
WISC RAPIDS    CLOUDY    33  29  85 W8        29.83R WCI  26
CAMP DOUGLAS   CLOUDY    35  28  76 W14       29.84R WCI  26
$$

WIZ011>013-019>022-031-037>040-048>050-281000-
NORTHEAST WISCONSIN

CITY           SKY/WX    TMP DP  RH WIND       PRES   REMARKS
ANTIGO         CLOUDY    28  24  83 W15G21    29.75R WCI  17
SHAWANO        CLOUDY    35  28  74 W12G18    29.80R WCI  27
OCONTO         NOT AVBL
STURGEON BAY   CLOUDY    36  30  79 W14       29.79R WCI  27
GREEN BAY      CLOUDY    37  32  82 W12       29.81R WCI  29
MANITOWOC      CLOUDY    38  32  79 W9        29.83R WCI  31
APPLETON       CLOUDY    34  28  80 SW15G25   29.80R WCI  24
CLINTONVILLE   CLOUDY    34  28  80 W10G20    29.81R WCI  26
OSHKOSH        CLOUDY    37  30  75 W8        29.82R WCI  31
$$

WIZ032>034-041-042-053>061-281000-
SOUTHWEST WISCONSIN

CITY           SKY/WX    TMP DP  RH WIND       PRES   REMARKS
LA CROSSE      CLEAR     35  27  72 SW8       29.86R WCI  29
SPARTA         CLOUDY    35  28  76 W9        29.86R WCI  28
VIROQUA        CLOUDY    33  29  86 W6        29.85R WCI  28
BOSCOBEL       CLOUDY    37  28  70 W8        29.88R WCI  31
PRAIRIE DU CHI CLEAR     33  27  77 W8        29.89R WCI  27
PLATTEVILLE    PTCLDY    32  32 100 W5        29.87R WCI  27
$$

WIZ056-057-062-063-064-067-068-281000-
SOUTH CENTRAL WISCONSIN

CITY           SKY/WX    TMP DP  RH WIND       PRES   REMARKS
REEDSBURG      CLOUDY    35  29  79 W9        29.85  WCI  28
BARABOO/DELLS  CLOUDY    35  29  77 W9        29.85R WCI  28
LONE ROCK      MOCLDY    36  28  73 W9        29.87R WCI  29
MINERAL POINT  CLOUDY    34  32  93 W5        29.85R WCI  30
MADISON        CLEAR     36  29  75 W5        29.85R WCI  32
MIDDLETON      CLEAR     35  30  83 W6        29.86R WCI  30
WATERTOWN      CLOUDY    35  33  92 SW5       29.85R WCI  30
MONROE         PTCLDY    34  32  93 W9        29.85S WCI  26
JANESVILLE     PTCLDY    36  34  93 W5        29.86R WCI  32
$$

WIZ051-052-058>065-066-070>072-281000-
SOUTHEAST WISCONSIN

CITY           SKY/WX    TMP DP  RH WIND       PRES   REMARKS
MILWAUKEE      PTCLDY    40  32  73 W10       29.86R WCI  33
WAUKESHA       CLOUDY    34  30  86 SW6       29.86R WCI  29
MILWAUKEE/TIMM CLOUDY    36  30  80 SW8       29.86R WCI  29
RACINE         MOCLDY    40  30  67 W7        29.88R
KENOSHA        PTCLDY    39  31  72 W8        29.87R WCI  33
FOND DU LAC    CLOUDY    38  28  67 W10       29.83R WCI  31
SHEBOYGAN      CLOUDY    39  34  82 W12       29.82R WCI  32
WEST BEND      CLOUDY    37  32  81 W9G18     29.83S WCI  31
JUNEAU         CLOUDY    37  31  79 SW12G17   29.85R WCI  29
$$

LSZ147-162-281000-
LAKE SUPERIOR

STATION/POSITION TIME  TEMP    WIND        PRES    WAVE
                       AIR SEA DIR/SP/G            HT/PER
                 (UTC) (F)     (DEG/KT/KT) (MB)    (FT/S)
DEVILS ISLAND    0900   32     260/ 19/ 22 1006.3R
PORT WING        0830   32     270/ 15/ 21 1006.4S
SAXON HARBOR     0840   30     220/  5/ 10 1006.1S
$$

LMZ867-665-643>646-281000-
LAKE MICHIGAN

STATION/POSITION TIME  TEMP    WIND        PRES    WAVE
                       AIR SEA DIR/SP/G            HT/PER
                 (UTC) (F)     (DEG/KT/KT) (MB)    (FT/S)
CHAMBERS ISLAND  0840   35     220/  5/ 14 1007.8R
N MID LAKE BUOY  0850   37 37  250/ 17/ 21 1008.9R   4/ 4
NORTHPORT PIER   0840   36     270/  6/ 15 1008.1R
KEWAUNEE LAKESHO 0854   38     240/  6/  9 1009.0R
SHEBOYGAN LAKESH 0900   40     260/  8/  9 1010.4R
PORT WASHINGTON  0840   41     250/  9/ 16 1011.2S
MILWAUKEE LAKESH 0900   40     240/  9/ 12   N/A
S MID LAKE BUOY  0850   42 41  250/ 10/ 12 1012.2R   2/ 4
KENOSHA   LAKESH 0900   41     240/  5/  7 1011.9
$$

TC  - TEMPERATURE IN CELSIUS
VSB - VISIBILITY IN STATUTE MILES
WCI - WIND CHILL INDEX
HX  - HEAT INDEX





USA.gov is the U.S. government's official web portal to all federal, state and local government web resources and services.